Regional Weather Roundup
Issued by NWS Charleston, SC

Current Version | Previous Version | Graphics & Text | Print | Product List | Glossary On
Versions: 1 2 3 4 5 6 7 8 9 10 11 12 13 14 15 16 17 18 19 20 21 22 23 24 25 26 27 28 29 30 31 32 33 34 35 36 37 38 39 40 41 42 43 44 45 46 47 48 49 50
000
ASUS42 KCHS 190212
RWRCHS

REGIONAL WEATHER ROUNDUP
NATIONAL WEATHER SERVICE CHARLESTON SC
900 PM EST WED JAN 18 2017

NOTE: "FAIR" INDICATES FEW OR NO CLOUDS BELOW 12,000 FEET WITH NO
SIGNIFICANT WEATHER AND/OR OBSTRUCTIONS TO VISIBILITY.

NOT ALL STATIONS ARE QUALITY CONTROLLED. USE DATA WITH CAUTION...
ESPECIALLY DEWPOINT OBSERVATIONS.

SCZ027-030-031-034>040-042>050-190300-
...SOUTHEAST SOUTH CAROLINA...

CITY           SKY/WX    TMP DP  RH WIND       PRES   REMARKS
N CHARLESTON   PTCLDY    66  58  75 W5        30.03R
WATERFRONT PRK   N/A     68  61  78 CALM      30.01R
MOUNT PLEASANT FAIR      70  61  73 W5        30.03R
JOHNS ISLAND   FAIR      68  61  77 W5        30.03R
PINOPOLIS        N/A     66  61  82 SW6       29.93R
MONCKS CORNER  FAIR      59  57  94 CALM      30.03R
SUMMERVILLE    FAIR      63  61  94 SW3       30.04R
BEAUFORT MCAS  CLEAR     66  58  75 W6        30.05R
BEAUFORT ARPT  FAIR      66  59  77 W6        30.04R
HILTON HEAD IS CLEAR     68  61  77 SW6       30.06R
WALTERBORO     CLEAR     64  59  82 W5        30.05R
ALLENDALE      FAIR      66  61  82 CALM      30.04R

...SOUTHERN MIDLANDS AND PEE DEE...

CITY           SKY/WX    TMP DP  RH WIND       PRES   REMARKS
GEORGETOWN     FAIR      55  55 100 CALM      30.03R
KINGSTREE      FAIR      54  50  87 CALM      30.02R
ORANGEBURG     CLEAR     65  58  78 W6        30.03R
BARNWELL       FAIR      66  61  82 W3        30.05R
AIKEN          FAIR      59  46  63 W5        30.08R
MANNING        FAIR      55  41  58 CALM      30.02R
COLUMBIA       CLEAR     57  47  69 SW5       30.03R
SUMTER         CLEAR     57  46  65 NW3       30.01R
FLORENCE       CLEAR     56  44  64 CALM      30.02S
MYRTLE BEACH   CLEAR     59  52  77 N7        30.04R
N MYRTLE BEACH CLEAR     53  51  93 NE3       30.01S

$$

GAZ063-065-086>088-099>101-113>116-118-119-134>141-150-190300-
...SOUTHEAST GEORGIA...

CITY           SKY/WX    TMP DP  RH WIND       PRES   REMARKS
SAVANNAH ARPT  CLEAR     69  57  65 W14       30.05F
HUNTER AAF     CLEAR     68  60  77 SW12      30.03S
FORT STEWART   CLEAR     64  58  80 SW3       30.06R
STATESBORO     CLEAR     68  61  78 W5        30.06S
SYLVANIA       CLEAR    N/A N/A N/A W5        30.06S
CLAXTON        FAIR     N/A N/A N/A CALM      30.08S

...CSRA...CENTRAL AND FAR SOUTHEAST GEORGIA...

CITY           SKY/WX    TMP DP  RH WIND       PRES   REMARKS
THOMSON        CLEAR     66  56  69 NW3       30.11S
AUGUSTA-BUSH   CLEAR     66  59  78 W5        30.04R
AUGUSTA-DANIEL CLEAR     69  50  50 VRB6      30.05S
SWAINSBORO     FAIR      64  59  82 MISG      30.09R
VIDALIA        CLEAR     63  61  94 W3        30.09S
EASTMAN        FAIR      60  60  97 CALM      30.12S
HAZLEHURST     FAIR      65  62  91 CALM      30.08S
ALMA           CLEAR     63  60  90 SW3       30.09S
WAYCROSS       CLEAR     67  66  96 SW3       30.10S
JESUP          FAIR      64  57  77 W3        30.09S
BAXLEY         FAIR      66  64  94 W3        30.09S
BRUNSWICK      CLEAR     66  61  82 W6        30.09F
SAINT SIMONS   CLEAR     65  59  81 W5        30.09R

$$

SCZ027-028-034-036>038-045-046-048>050-GAZ119-141-190300-
...LAKE AND SUPPLEMENTAL COASTAL OBSERVATIONS...

STATION/POSITION TIME  TEMP    WIND        PRES    WAVE   SWELL
                       AIR SEA DIR/SP/G            HT/PER HT/PER/DIR
                 (UTC) (F)     (DEG/KT/KT) (MB)    (FT/S) (FT/S/D)
WINYAH BAY       0045   63     330/  2     1016.0
LAKE MURRAY      0120   62     300/  3/  4 1016.6R
ACE BASIN NERRS  0045   68     270/  1     1017.0
FORT PULASKI     0130   69 57  260/  8/ 12 1017.8R
SAPELO ISLAND    0100   64     240/  4     1019.0

$$

ANZ835-935-AMZ111-154-330-350-352-354-370-450-454-472-190300-
...C-MAN AND BUOY OBSERVATIONS...

STATION/POSITION TIME  TEMP    WIND        PRES    WAVE   SWELL
                       AIR SEA DIR/SP/G            HT/PER HT/PER/DIR
                 (UTC) (F)     (DEG/KT/KT) (MB)    (FT/S) (FT/S/D)
BUOY 41004       0050   70 72  260/ 17/ 19 1015.7    5/ 6   2/210/ 9
BUOY 41008       0050   62 60  250/  6/  6 1018.4    1/10   2/ 70/10
FOLLY BEACH CMAN 0100   64     240/  4/  5 1017.0R
CAPERS NEARSHORE 0108   57 55  250/  6/  8 1016.2R
FRIPP NEARSHORE  0108   62 58  240/  8/ 12 1016.7S


STATION/POSITION TIME  TEMP    WIND        PRES    WAVE   SWELL
                       AIR SEA DIR/SP/G            HT/PER HT/PER/DIR
                 (UTC) (F)     (DEG/KT/KT) (MB)    (FT/S) (FT/S/D)
5E ST. MARYS GA  0200      63                N/A     1/10
FRYING PAN BUOY  0120   67      20/ 14/ 17 1016.1
BUOY 41025       0050   57 72   20/ 25/ 31 1015.0    5/ 6
CAPE LOOKOUT NC  0100   52      10/ 10/ 13 1016.9R
BUOY 41002       0050   70 72  290/ 21/ 27 1013.5    9/ 8
BUOY 41010       NOT AVBL
ST AUGUSTINE FL  0100   71 63  250/  3/  3 1020.4S


$$




USA.gov is the U.S. government's official web portal to all federal, state and local government web resources and services.